TEN-KOH

Satellite information

Favourite Embed

Satellite Type and Status

PAYLOADIN ORBIT

Key statistics

Satellite TEN-KOH at a glance.

Uptime

2443

Days in orbit

Revolutions

≈ 15.0

Per day

Orbit

SSO

Sun Synchronous Orbit

Inclination

98.1

Latest

Satellite identification and parameters

Extended collection of information and parameters for TEN-KOH.

Object identification

Identified? True

Debris? False

Object name: TEN-KOH

International designator: 2018-084G

Object number (NORAD): 43677

Object ID (CCSDS): 43677

Country: JAPAN (JPN)

Current information (Y/N): Y

RCS size: MEDIUM

Orbital parameters

Period: 95.957 minutes

Inclination: 98.0848 deg

SMA: 6942.959 km

Apoapsis: 570.329 km

Periapsis: 559.32 km

RAAN: 0.788 deg

Eccentricy: 0.0007928

Argument of periapsis: 161.9872 deg

Mean anomaly: 198.1633 deg

Mean motion: 15.00672181 rev/day

Mean motion (dot): 0.00001813 rev/day2

B* drag term: 0.00014833 1/REarth

Two-line elements (TLE)

Creation date: July 6, 2025, 6:05 p.m.

Reference frame: TEME

Reference center: EARTH

Epoch: July 6, 2025, 11:13 a.m. UTC

TLE line 0: 0 TEN-KOH

TLE line 1: 1 43677U 18084G 25187.46788715 .00001813 00000-0 14833-3 0 9992

TLE line 2: 2 43677 98.0848 0.7880 0007928 161.9872 198.1633 15.00672181364273

Live tracking on map

Real-time ground track for satellite TEN-KOH.

In-orbit conjunctions

There are no conjunctions computed for TEN-KOH, at the moment. Check back to stay up to date, as we update our databases every day.

Go to all conjunctions

Associated space launch

KhalifaSat is an Earth observation satellite for UAE. KhalifaSat will provide high-resolution imagery of Earth to be used for various purposes, including urban planning, change monitoring, area classification, monitoring environmental change and aiding relief efforts for natural disasters. GOSAT 2 (Greenhouse gases Observing SATellite 2) is a Japanese satellite dedicated to greenhouse gas measurement from space. It's a follow on to the GOSAT mission and includes such improvements as an ability to gather more precise data and monitor carbon monoxide concentrations.

TEN-KOH was lifted into orbit during the mission ‘H-IIA 202 | KhalifaSat & GOSAT-2’, on board a H-IIA space rocket.

The launch took place on Oct. 29, 2018, 4:08 a.m. from Yoshinobu Launch Complex LP-1.

For more information about the launch, click the button.

Launch to space H-IIA 202 | KhalifaSat & GOSAT-2
H-IIA 202 | KhalifaSat & GOSAT-2

Agency: N/A

Status: Launch Successful

Launch date: Oct. 29, 2018, 4:08 a.m. UTC

Rocket: H-IIA

Launch pad: Yoshinobu Launch Complex LP-1

Location: Tanegashima Space Center, Japan

...

Latest news about this satellite

News about space launch
Japan Launches UAE's KhalifaSat and Climate-Monitoring Satellite Into Orbit


Newsletter sign-up

Weekly statistics, charts and insights to help you stay on top of the space industry.